Location: Ammerl�gen
(47.2167°N, 9.6000°E)
Time: 10:53:24
(UTC+00:00)

Sich 1 - Pass Details

Date: 21 April 2021
Orbit: 593 x 626 km, 82.5° (Epoch: 07 May)

Event Time Altitude Azimuth Distance (km) Brightness Sun altitude
Rises 21:21:46 0° 358° (N) 2,845 7.4 -25.0°
Reaches altitude 10° 21:24:10 10° 9° (N) 1,938 6.2 -25.2°
Enters shadow 21:27:05 29° 47° (NE) 1,104 4.4 -25.5°
